DAL780 KRDU-CYUL

Flight info

Callsign DAL780
Flight time N/A
Altitude 39000
Route BEXGO5 BOUSY DCT GEARS DCT BBOBO Q22 LLUND DCT CAM DCT JASDU DCT PBERG CARTR5
Aircraft B763/H-SDE3FGHIM3RWXY/LB1

Departure

Time 2026-05-07 01:57
Airport Raleigh-Durham International Airport (KRDU)

Arrival

Time N/A
Airport Montreal / Pierre Elliott Trudeau International Airport (CYUL)
Time Latitude Longitude Altitude Speed Heading
2026-05-07 01:30 35.87500 -78.79669 414 ft 0 kts 82°
2026-05-07 01:43 35.87495 -78.79687 413 ft 2 kts 96°
2026-05-07 01:43 35.87498 -78.79703 416 ft 2 kts 60°
2026-05-07 01:43 35.87488 -78.79720 414 ft 2 kts 41°
2026-05-07 01:44 35.87475 -78.79731 414 ft 2 kts 358°
2026-05-07 01:44 35.87463 -78.79728 414 ft 0 kts 317°
2026-05-07 01:49 35.87474 -78.79740 414 ft 6 kts 317°
2026-05-07 01:49 35.87524 -78.79780 417 ft 9 kts 347°
2026-05-07 01:49 35.87575 -78.79743 419 ft 12 kts 44°
2026-05-07 01:49 35.87658 -78.79639 420 ft 22 kts 44°
2026-05-07 01:50 35.87768 -78.79506 421 ft 18 kts 45°
2026-05-07 01:50 35.87848 -78.79406 433 ft 12 kts 46°
2026-05-07 01:50 35.87885 -78.79359 423 ft 0 kts 45°
2026-05-07 01:50 35.87894 -78.79347 425 ft 6 kts 45°
2026-05-07 01:51 35.87895 -78.79346 425 ft 0 kts 45°
2026-05-07 01:51 35.87908 -78.79331 423 ft 8 kts 44°
2026-05-07 01:51 35.87928 -78.79307 424 ft 3 kts 44°
2026-05-07 01:51 35.87931 -78.79303 424 ft 0 kts 44°
2026-05-07 01:52 35.87931 -78.79302 421 ft 2 kts 44°
2026-05-07 01:52 35.87970 -78.79255 424 ft 12 kts 45°
2026-05-07 01:52 35.88026 -78.79186 424 ft 9 kts 45°
2026-05-07 01:52 35.88088 -78.79109 422 ft 12 kts 45°
2026-05-07 01:53 35.88113 -78.79078 423 ft 1 kts 45°
2026-05-07 01:53 35.88130 -78.79058 422 ft 9 kts 45°
2026-05-07 01:53 35.88203 -78.78963 418 ft 20 kts 47°
2026-05-07 01:53 35.88320 -78.78817 417 ft 26 kts 45°
2026-05-07 01:54 35.88434 -78.78675 418 ft 24 kts 45°
2026-05-07 01:54 35.88556 -78.78523 421 ft 28 kts 45°
2026-05-07 01:54 35.88666 -78.78388 426 ft 22 kts 44°
2026-05-07 01:54 35.88800 -78.78226 420 ft 28 kts 44°
2026-05-07 01:55 35.88915 -78.78083 418 ft 21 kts 46°
2026-05-07 01:55 35.89003 -78.77907 423 ft 27 kts 61°
2026-05-07 01:55 35.89114 -78.77754 417 ft 21 kts 45°
2026-05-07 01:55 35.89199 -78.77657 417 ft 10 kts 24°
2026-05-07 01:56 35.89256 -78.77675 427 ft 10 kts 325°
2026-05-07 01:56 35.89334 -78.77769 422 ft 23 kts 311°
2026-05-07 01:56 35.89285 -78.77931 421 ft 38 kts 226°
2026-05-07 01:56 35.88858 -78.78457 425 ft 139 kts 225°
2026-05-07 01:57 35.87989 -78.79546 813 ft 203 kts 229°
2026-05-07 01:57 35.86961 -78.80908 1653 ft 230 kts 229°
2026-05-07 01:57 35.85873 -78.82439 2622 ft 242 kts 233°
2026-05-07 01:57 35.84913 -78.84180 3619 ft 249 kts 237°
2026-05-07 01:58 35.84064 -78.86033 4686 ft 251 kts 250°
2026-05-07 01:58 35.83801 -78.88095 5936 ft 248 kts 276°
2026-05-07 01:58 35.84464 -78.90088 6777 ft 264 kts 308°
2026-05-07 01:58 35.85704 -78.91818 6965 ft 258 kts 314°
2026-05-07 01:59 35.86981 -78.93184 8269 ft 239 kts 325°